Volver al catálogo

YAOGAN 30 DEB

ActivoMilitarPO
NORAD 42677·DEBRIS·🇨🇳 China

Lanzado May 15, 2016 desde Jiuquan Satellite Launch Center

Loading…

Próximos Pases (próximas 24 horas)

TLE

ActualizadoSource: Space-Track

Época: Sep 14, 2026, 13:05 UTC

1 42677U 16029C   26257.54516397  .00002100  00000-0  59579-3 0  9997
2 42677  98.0141  10.4714 0228490 148.8026 212.6957 14.32219811524669

Sigue YAOGAN 30 DEB en tiempo real con AllMySat

Download on the App Store